�N����,�����b,���ԉ��x,���Ԏ��x,��󒲎�,����,�����W
2003/5/1,0:00:00,18.5 ,56.9 ,15.3 ,14.8 ,18.4 
2003/5/1,0:15:00,18.5 ,56.5 ,15.3 ,14.9 ,18.3 
2003/5/1,0:30:00,18.4 ,56.1 ,15.2 ,15.0 ,18.3 
2003/5/1,0:45:00,18.4 ,57.2 ,15.2 ,15.1 ,18.2 
2003/5/1,1:00:00,18.3 ,56.7 ,15.1 ,15.2 ,18.2 
2003/5/1,1:15:00,18.3 ,56.3 ,15.1 ,15.3 ,18.1 
2003/5/1,1:30:00,18.2 ,55.9 ,15.0 ,15.3 ,18.0 
2003/5/1,1:45:00,18.2 ,55.5 ,14.9 ,15.4 ,17.9 
2003/5/1,2:00:00,18.1 ,55.1 ,14.8 ,15.5 ,17.8 
2003/5/1,2:15:00,18.0 ,54.8 ,14.8 ,15.6 ,17.7 
2003/5/1,2:30:00,18.0 ,54.5 ,14.7 ,15.6 ,17.6 
2003/5/1,2:45:00,17.9 ,54.3 ,14.7 ,15.7 ,17.5 
2003/5/1,3:00:00,17.8 ,54.0 ,14.6 ,15.8 ,17.4 
2003/5/1,3:15:00,17.8 ,53.6 ,14.6 ,15.8 ,17.4 
2003/5/1,3:30:00,17.7 ,53.5 ,14.5 ,15.9 ,17.3 
2003/5/1,3:45:00,17.6 ,53.2 ,14.5 ,15.9 ,17.2 
2003/5/1,4:00:00,17.6 ,53.0 ,14.4 ,16.0 ,17.1 
2003/5/1,4:15:00,17.5 ,52.8 ,14.3 ,16.0 ,17.0 
2003/5/1,4:30:00,17.4 ,52.7 ,14.3 ,16.1 ,16.9 
2003/5/1,4:45:00,17.4 ,52.5 ,14.2 ,16.1 ,16.8 
2003/5/1,5:00:00,17.3 ,52.2 ,14.2 ,16.1 ,16.7 
2003/5/1,5:15:00,17.3 ,52.1 ,14.1 ,14.8 ,17.1 
2003/5/1,5:30:00,17.2 ,52.0 ,14.1 ,14.8 ,17.3 
2003/5/1,5:45:00,17.3 ,51.9 ,14.1 ,14.9 ,17.3 
2003/5/1,6:00:00,17.3 ,51.7 ,14.0 ,14.9 ,17.3 
2003/5/1,6:15:00,17.4 ,51.6 ,14.0 ,14.9 ,17.3 
2003/5/1,6:30:00,17.5 ,51.6 ,14.0 ,15.0 ,17.4 
2003/5/1,6:45:00,17.5 ,51.7 ,14.1 ,15.1 ,17.4 
2003/5/1,7:00:00,17.6 ,52.2 ,14.1 ,15.2 ,17.5 
2003/5/1,7:15:00,17.9 ,51.5 ,14.1 ,15.2 ,17.5 
2003/5/1,7:30:00,18.3 ,50.6 ,14.1 ,14.1 ,17.8 
2003/5/1,7:45:00,18.3 ,51.2 ,14.1 ,13.4 ,17.9 
2003/5/1,8:00:00,18.4 ,51.1 ,14.1 ,13.6 ,18.0 
2003/5/1,8:15:00,18.5 ,51.7 ,14.1 ,13.7 ,18.0 
2003/5/1,8:30:00,18.6 ,51.3 ,14.2 ,13.7 ,18.1 
2003/5/1,8:45:00,18.7 ,50.2 ,14.2 ,13.8 ,18.2 
2003/5/1,9:00:00,18.7 ,50.8 ,14.2 ,13.9 ,18.4 
2003/5/1,9:15:00,18.8 ,50.6 ,14.2 ,13.9 ,18.4 
2003/5/1,9:30:00,18.8 ,51.0 ,14.2 ,13.6 ,18.6 
2003/5/1,9:45:00,18.8 ,44.9 ,14.3 ,13.7 ,18.7 
2003/5/1,10:00:00,18.0 ,34.5 ,14.3 ,13.8 ,18.5 
2003/5/1,10:15:00,17.8 ,31.6 ,14.4 ,13.9 ,18.1 
2003/5/1,10:30:00,17.8 ,35.5 ,14.4 ,13.9 ,18.0 
2003/5/1,10:45:00,17.8 ,35.0 ,14.5 ,14.0 ,18.1 
2003/5/1,11:00:00,18.1 ,36.9 ,14.5 ,14.1 ,18.2 
2003/5/1,11:15:00,18.2 ,35.7 ,14.5 ,14.1 ,18.4 
2003/5/1,11:30:00,18.3 ,37.5 ,14.6 ,13.7 ,18.6 
2003/5/1,11:45:00,18.3 ,37.2 ,14.6 ,13.8 ,18.6 
2003/5/1,12:00:00,18.3 ,35.8 ,14.7 ,13.9 ,18.6 
2003/5/1,12:15:00,18.3 ,36.3 ,14.7 ,13.9 ,18.7 
2003/5/1,12:30:00,18.2 ,36.2 ,14.7 ,14.0 ,18.6 
2003/5/1,12:45:00,18.1 ,33.6 ,14.7 ,14.1 ,18.6 
2003/5/1,13:00:00,18.2 ,34.4 ,14.8 ,13.7 ,18.8 
2003/5/1,13:15:00,18.3 ,33.2 ,14.8 ,13.7 ,19.9 
2003/5/1,13:30:00,18.4 ,35.7 ,14.8 ,13.5 ,19.9 
2003/5/1,13:45:00,18.5 ,35.7 ,14.8 ,13.6 ,19.8 
2003/5/1,14:00:00,18.5 ,36.6 ,14.8 ,13.6 ,19.8 
2003/5/1,14:15:00,18.6 ,37.9 ,14.9 ,13.5 ,19.7 
2003/5/1,14:30:00,18.6 ,38.1 ,14.9 ,13.6 ,19.6 
2003/5/1,14:45:00,18.6 ,38.5 ,14.9 ,13.7 ,19.6 
2003/5/1,15:00:00,18.6 ,38.4 ,15.0 ,13.7 ,19.5 
2003/5/1,15:15:00,18.5 ,39.0 ,15.0 ,13.8 ,19.4 
2003/5/1,15:30:00,18.6 ,39.6 ,15.0 ,13.9 ,19.3 
2003/5/1,15:45:00,18.6 ,40.8 ,15.1 ,13.9 ,19.3 
2003/5/1,16:00:00,18.6 ,42.7 ,15.1 ,14.0 ,19.3 
2003/5/1,16:15:00,18.6 ,42.0 ,15.1 ,14.1 ,19.2 
2003/5/1,16:30:00,18.5 ,42.9 ,15.1 ,14.2 ,19.1 
2003/5/1,16:45:00,18.5 ,42.3 ,15.2 ,14.2 ,19.1 
2003/5/1,17:00:00,18.5 ,42.9 ,15.2 ,13.7 ,19.0 
2003/5/1,17:15:00,18.5 ,43.0 ,15.2 ,13.5 ,19.0 
2003/5/1,17:30:00,18.5 ,43.2 ,15.2 ,13.6 ,18.9 
2003/5/1,17:45:00,18.5 ,44.3 ,15.2 ,13.7 ,18.9 
2003/5/1,18:00:00,18.5 ,44.6 ,15.2 ,13.6 ,18.8 
2003/5/1,18:15:00,18.5 ,45.0 ,15.1 ,13.6 ,18.9 
2003/5/1,18:30:00,18.5 ,44.6 ,15.1 ,13.7 ,18.8 
2003/5/1,18:45:00,18.4 ,45.9 ,15.1 ,13.8 ,18.8 
2003/5/1,19:00:00,18.4 ,45.1 ,15.1 ,13.9 ,19.9 
2003/5/1,19:15:00,18.4 ,45.4 ,15.1 ,14.0 ,19.7 
2003/5/1,19:30:00,18.4 ,45.7 ,14.9 ,14.1 ,20.7 
2003/5/1,19:45:00,18.4 ,45.8 ,14.9 ,14.2 ,20.5 
2003/5/1,20:00:00,18.3 ,45.6 ,14.9 ,14.3 ,19.9 
2003/5/1,20:15:00,18.3 ,46.0 ,14.9 ,13.9 ,20.4 
2003/5/1,20:30:00,18.4 ,46.2 ,14.9 ,13.9 ,20.3 
2003/5/1,20:45:00,18.4 ,46.2 ,14.9 ,14.0 ,19.8 
2003/5/1,21:00:00,18.4 ,46.1 ,14.9 ,14.1 ,19.5 
2003/5/1,21:15:00,18.3 ,46.2 ,14.8 ,14.2 ,19.2 
2003/5/1,21:30:00,18.2 ,46.3 ,14.8 ,14.2 ,19.0 
2003/5/1,21:45:00,18.2 ,46.2 ,14.8 ,13.7 ,18.8 
2003/5/1,22:00:00,18.2 ,47.5 ,14.7 ,13.8 ,18.8 
2003/5/1,22:15:00,18.1 ,47.2 ,14.7 ,13.9 ,18.7 
2003/5/1,22:30:00,18.0 ,47.4 ,14.7 ,13.9 ,18.4 
2003/5/1,22:45:00,18.0 ,48.6 ,14.6 ,14.0 ,18.3 
2003/5/1,23:00:00,18.0 ,49.4 ,14.5 ,13.9 ,18.2 
2003/5/1,23:15:00,17.9 ,50.8 ,14.5 ,13.9 ,18.0 
2003/5/1,23:30:00,17.9 ,50.0 ,14.4 ,14.0 ,17.8 
2003/5/1,23:45:00,17.8 ,49.6 ,14.4 ,14.0 ,17.7 
2003/5/2,0:00:00,17.8 ,49.5 ,14.4 ,14.1 ,17.7 
2003/5/2,0:15:00,17.7 ,50.9 ,14.4 ,14.2 ,17.5 
2003/5/2,0:30:00,17.7 ,50.8 ,14.4 ,14.2 ,17.4 
2003/5/2,0:45:00,17.6 ,50.4 ,14.3 ,14.3 ,17.4 
2003/5/2,1:00:00,17.6 ,50.1 ,14.3 ,14.3 ,17.3 
2003/5/2,1:15:00,17.5 ,49.9 ,14.3 ,14.3 ,17.2 
2003/5/2,1:30:00,17.5 ,49.7 ,14.2 ,14.4 ,17.1 
2003/5/2,1:45:00,17.4 ,49.5 ,14.3 ,14.1 ,17.0 
2003/5/2,2:00:00,17.4 ,49.3 ,14.3 ,14.2 ,17.0 
2003/5/2,2:15:00,17.3 ,49.0 ,14.3 ,14.2 ,16.9 
2003/5/2,2:30:00,17.3 ,48.8 ,14.2 ,14.3 ,16.9 
2003/5/2,2:45:00,17.2 ,48.5 ,14.2 ,14.3 ,16.9 
2003/5/2,3:00:00,17.2 ,48.4 ,14.2 ,14.4 ,16.9 
2003/5/2,3:15:00,17.1 ,48.2 ,14.2 ,14.4 ,16.9 
2003/5/2,3:30:00,17.1 ,48.2 ,14.2 ,14.5 ,16.9 
2003/5/2,3:45:00,17.1 ,48.1 ,14.2 ,14.5 ,16.8 
2003/5/2,4:00:00,17.0 ,48.1 ,14.2 ,14.5 ,16.6 
2003/5/2,4:15:00,17.0 ,48.0 ,14.2 ,14.6 ,16.5 
2003/5/2,4:30:00,16.9 ,48.0 ,14.2 ,14.6 ,16.5 
2003/5/2,4:45:00,16.9 ,47.9 ,14.1 ,14.7 ,16.5 
2003/5/2,5:00:00,16.9 ,47.8 ,14.1 ,14.7 ,16.5 
2003/5/2,5:15:00,16.8 ,47.7 ,14.1 ,14.7 ,16.5 
2003/5/2,5:30:00,16.9 ,47.6 ,14.1 ,14.8 ,16.5 
2003/5/2,5:45:00,16.9 ,47.8 ,14.1 ,14.8 ,16.5 
2003/5/2,6:00:00,17.0 ,48.6 ,14.1 ,14.8 ,16.6 
2003/5/2,6:15:00,17.0 ,49.0 ,14.1 ,14.9 ,16.6 
2003/5/2,6:30:00,17.1 ,48.6 ,14.1 ,14.9 ,16.7 
2003/5/2,6:45:00,17.2 ,49.2 ,14.1 ,15.0 ,16.8 
2003/5/2,7:00:00,17.3 ,48.5 ,14.1 ,15.0 ,17.0 
2003/5/2,7:15:00,17.6 ,48.3 ,14.2 ,15.0 ,17.2 
2003/5/2,7:30:00,18.2 ,48.3 ,14.2 ,14.3 ,17.8 
2003/5/2,7:45:00,18.2 ,48.8 ,14.3 ,14.2 ,18.1 
2003/5/2,8:00:00,18.4 ,48.4 ,14.4 ,13.4 ,18.3 
2003/5/2,8:15:00,18.5 ,48.1 ,14.6 ,13.5 ,18.4 
2003/5/2,8:30:00,18.7 ,48.1 ,14.7 ,13.5 ,18.6 
2003/5/2,8:45:00,18.8 ,48.5 ,14.8 ,13.6 ,18.8 
2003/5/2,9:00:00,18.9 ,48.8 ,14.9 ,13.7 ,18.9 
2003/5/2,9:15:00,19.0 ,48.6 ,15.1 ,13.7 ,19.0 
2003/5/2,9:30:00,19.1 ,47.2 ,15.2 ,13.7 ,19.1 
2003/5/2,9:45:00,19.2 ,44.8 ,15.4 ,13.5 ,19.3 
2003/5/2,10:00:00,19.3 ,43.3 ,15.5 ,13.6 ,19.4 
2003/5/2,10:15:00,19.4 ,43.0 ,15.6 ,13.7 ,19.5 
2003/5/2,10:30:00,19.5 ,42.3 ,15.7 ,13.7 ,19.5 
2003/5/2,10:45:00,19.5 ,41.2 ,15.8 ,13.8 ,19.6 
2003/5/2,11:00:00,19.6 ,39.0 ,15.9 ,13.9 ,19.7 
2003/5/2,11:15:00,19.7 ,39.1 ,16.1 ,14.0 ,19.8 
2003/5/2,11:30:00,19.8 ,38.2 ,16.2 ,14.1 ,19.9 
2003/5/2,11:45:00,19.9 ,38.2 ,16.3 ,14.2 ,20.0 
2003/5/2,12:00:00,20.0 ,38.1 ,16.4 ,13.7 ,20.6 
2003/5/2,12:15:00,20.2 ,38.5 ,16.5 ,13.8 ,22.0 
2003/5/2,12:30:00,20.3 ,39.7 ,16.6 ,13.9 ,21.6 
2003/5/2,12:45:00,20.4 ,38.2 ,16.6 ,13.7 ,21.2 
2003/5/2,13:00:00,20.5 ,38.2 ,16.7 ,13.7 ,21.0 
2003/5/2,13:15:00,20.6 ,37.8 ,16.8 ,13.8 ,20.9 
2003/5/2,13:30:00,20.6 ,38.2 ,16.9 ,13.9 ,20.9 
2003/5/2,13:45:00,20.7 ,38.3 ,17.0 ,14.0 ,20.8 
2003/5/2,14:00:00,20.7 ,38.4 ,17.1 ,14.1 ,20.8 
2003/5/2,14:15:00,20.8 ,39.7 ,17.2 ,14.2 ,20.8 
2003/5/2,14:30:00,20.9 ,40.1 ,17.3 ,13.6 ,20.8 
2003/5/2,14:45:00,20.9 ,40.0 ,17.3 ,13.6 ,20.8 
2003/5/2,15:00:00,20.9 ,40.4 ,17.4 ,13.7 ,20.9 
2003/5/2,15:15:00,21.0 ,39.2 ,17.5 ,13.8 ,20.9 
2003/5/2,15:30:00,20.9 ,41.1 ,17.6 ,14.0 ,20.9 
2003/5/2,15:45:00,20.8 ,41.8 ,17.6 ,14.1 ,20.8 
2003/5/2,16:00:00,20.8 ,42.2 ,17.7 ,14.2 ,20.7 
2003/5/2,16:15:00,20.7 ,42.7 ,17.8 ,14.3 ,20.7 
2003/5/2,16:30:00,20.7 ,41.8 ,17.8 ,14.4 ,20.6 
2003/5/2,16:45:00,20.7 ,43.7 ,17.9 ,14.5 ,20.6 
2003/5/2,17:00:00,20.6 ,43.4 ,17.9 ,14.6 ,20.6 
2003/5/2,17:15:00,20.6 ,42.5 ,18.0 ,14.7 ,20.5 
2003/5/2,17:30:00,20.5 ,43.3 ,18.0 ,14.8 ,20.5 
2003/5/2,17:45:00,20.5 ,43.0 ,18.0 ,14.9 ,20.5 
2003/5/2,18:00:00,20.5 ,42.8 ,18.0 ,15.0 ,20.5 
2003/5/2,18:15:00,20.5 ,43.8 ,18.1 ,15.1 ,20.6 
2003/5/2,18:30:00,20.5 ,44.5 ,18.1 ,15.2 ,20.8 
2003/5/2,18:45:00,20.5 ,45.5 ,18.0 ,15.3 ,21.9 
2003/5/2,19:00:00,20.5 ,45.6 ,18.1 ,15.4 ,22.5 
2003/5/2,19:15:00,20.5 ,45.4 ,18.1 ,14.2 ,21.9 
2003/5/2,19:30:00,20.5 ,46.9 ,18.1 ,14.2 ,22.9 
2003/5/2,19:45:00,20.5 ,46.9 ,18.1 ,14.3 ,22.9 
2003/5/2,20:00:00,20.6 ,46.7 ,18.1 ,14.4 ,22.2 
2003/5/2,20:15:00,20.6 ,46.9 ,18.1 ,14.5 ,21.8 
2003/5/2,20:30:00,20.6 ,47.9 ,18.1 ,14.6 ,21.7 
2003/5/2,20:45:00,20.6 ,47.4 ,18.1 ,14.7 ,21.4 
2003/5/2,21:00:00,20.5 ,47.6 ,18.0 ,14.8 ,21.2 
2003/5/2,21:15:00,20.5 ,47.4 ,18.0 ,14.8 ,21.0 
2003/5/2,21:30:00,20.4 ,48.3 ,18.0 ,14.9 ,20.9 
2003/5/2,21:45:00,20.4 ,48.8 ,18.0 ,14.0 ,20.7 
2003/5/2,22:00:00,20.3 ,48.1 ,18.0 ,14.1 ,20.7 
2003/5/2,22:15:00,20.3 ,48.4 ,18.0 ,14.2 ,20.6 
2003/5/2,22:30:00,20.3 ,49.4 ,17.9 ,14.3 ,20.5 
2003/5/2,22:45:00,20.2 ,50.1 ,17.9 ,14.4 ,20.3 
2003/5/2,23:00:00,20.1 ,49.7 ,17.9 ,14.5 ,20.2 
2003/5/2,23:15:00,20.0 ,49.3 ,17.8 ,14.6 ,20.1 
2003/5/2,23:30:00,19.9 ,48.9 ,17.8 ,14.7 ,19.9 
2003/5/2,23:45:00,19.9 ,48.8 ,17.7 ,14.9 ,19.9 
2003/5/3,0:00:00,19.8 ,48.6 ,17.7 ,15.0 ,19.8 
2003/5/3,0:15:00,19.8 ,48.6 ,17.7 ,15.1 ,19.8 
2003/5/3,0:30:00,19.7 ,48.5 ,17.7 ,15.2 ,19.7 
2003/5/3,0:45:00,19.7 ,48.5 ,17.7 ,15.3 ,19.7 
2003/5/3,1:00:00,19.6 ,48.5 ,17.7 ,15.4 ,19.6 
2003/5/3,1:15:00,19.6 ,48.6 ,17.7 ,15.5 ,19.5 
2003/5/3,1:30:00,19.6 ,48.4 ,17.6 ,15.6 ,19.4 
2003/5/3,1:45:00,19.5 ,48.5 ,17.6 ,15.7 ,19.3 
2003/5/3,2:00:00,19.5 ,48.4 ,17.6 ,15.8 ,19.2 
2003/5/3,2:15:00,19.4 ,48.4 ,17.6 ,15.8 ,19.1 
2003/5/3,2:30:00,19.4 ,48.4 ,17.5 ,15.9 ,19.0 
2003/5/3,2:45:00,19.3 ,48.4 ,17.5 ,16.0 ,19.0 
2003/5/3,3:00:00,19.3 ,48.4 ,17.5 ,16.1 ,18.9 
2003/5/3,3:15:00,19.2 ,48.4 ,17.5 ,16.1 ,18.8 
2003/5/3,3:30:00,19.2 ,48.4 ,17.4 ,16.2 ,18.7 
2003/5/3,3:45:00,19.2 ,48.4 ,17.4 ,16.2 ,18.7 
2003/5/3,4:00:00,19.1 ,48.5 ,17.4 ,16.3 ,18.7 
2003/5/3,4:15:00,19.1 ,48.5 ,17.4 ,16.4 ,18.6 
2003/5/3,4:30:00,19.1 ,48.5 ,17.3 ,16.4 ,18.5 
2003/5/3,4:45:00,19.0 ,48.4 ,17.3 ,16.5 ,18.5 
2003/5/3,5:00:00,19.0 ,48.5 ,17.3 ,16.5 ,18.5 
2003/5/3,5:15:00,19.0 ,48.5 ,17.2 ,16.6 ,18.6 
2003/5/3,5:30:00,19.0 ,50.0 ,17.2 ,14.9 ,18.8 
2003/5/3,5:45:00,19.0 ,48.6 ,17.2 ,15.0 ,18.9 
2003/5/3,6:00:00,19.1 ,48.9 ,17.2 ,15.1 ,19.1 
2003/5/3,6:15:00,19.1 ,48.7 ,17.2 ,15.1 ,19.1 
2003/5/3,6:30:00,19.2 ,50.1 ,17.2 ,15.2 ,19.1 
2003/5/3,6:45:00,19.3 ,49.1 ,17.2 ,15.3 ,19.2 
2003/5/3,7:00:00,19.4 ,48.9 ,17.2 ,15.4 ,19.2 
2003/5/3,7:15:00,19.5 ,52.1 ,17.2 ,14.4 ,19.4 
2003/5/3,7:30:00,19.6 ,50.6 ,17.3 ,14.2 ,19.6 
2003/5/3,7:45:00,19.8 ,51.4 ,17.4 ,14.3 ,20.0 
2003/5/3,8:00:00,20.1 ,51.0 ,17.5 ,14.3 ,20.2 
2003/5/3,8:15:00,20.3 ,51.2 ,17.6 ,14.4 ,20.6 
2003/5/3,8:30:00,20.5 ,50.5 ,17.7 ,14.5 ,20.8 
2003/5/3,8:45:00,20.8 ,50.0 ,17.8 ,14.3 ,20.9 
2003/5/3,9:00:00,21.0 ,50.2 ,17.9 ,14.5 ,21.1 
2003/5/3,9:15:00,21.1 ,49.6 ,18.3 ,14.5 ,21.3 
2003/5/3,9:30:00,21.3 ,47.7 ,18.6 ,14.6 ,21.4 
2003/5/3,9:45:00,21.9 ,43.9 ,18.9 ,14.3 ,21.7 
2003/5/3,10:00:00,22.0 ,43.1 ,19.2 ,14.4 ,21.8 
2003/5/3,10:15:00,22.1 ,44.1 ,19.5 ,14.5 ,22.0 
2003/5/3,10:30:00,22.2 ,44.1 ,19.3 ,14.6 ,22.1 
2003/5/3,10:45:00,22.3 ,44.4 ,19.2 ,14.7 ,22.1 
2003/5/3,11:00:00,22.5 ,44.1 ,19.1 ,14.7 ,22.3 
2003/5/3,11:15:00,22.6 ,45.2 ,19.2 ,14.8 ,22.4 
2003/5/3,11:30:00,22.6 ,45.8 ,19.2 ,14.9 ,22.5 
2003/5/3,11:45:00,22.8 ,45.1 ,19.3 ,15.0 ,22.5 
2003/5/3,12:00:00,23.4 ,45.9 ,19.3 ,15.1 ,23.2 
2003/5/3,12:15:00,23.6 ,46.5 ,19.5 ,14.2 ,23.9 
2003/5/3,12:30:00,23.8 ,43.8 ,20.2 ,14.3 ,23.8 
2003/5/3,12:45:00,23.7 ,45.6 ,20.5 ,14.4 ,23.7 
2003/5/3,13:00:00,23.7 ,44.2 ,20.8 ,14.5 ,24.2 
2003/5/3,13:15:00,23.5 ,44.6 ,21.0 ,14.6 ,24.4 
2003/5/3,13:30:00,23.5 ,45.0 ,21.2 ,14.7 ,24.3 
2003/5/3,13:45:00,23.4 ,46.5 ,21.4 ,14.8 ,24.2 
2003/5/3,14:00:00,23.7 ,45.0 ,21.5 ,15.0 ,24.1 
2003/5/3,14:15:00,23.6 ,46.7 ,21.5 ,15.1 ,24.0 
2003/5/3,14:30:00,23.7 ,46.7 ,21.5 ,15.3 ,24.0 
2003/5/3,14:45:00,23.6 ,46.6 ,21.6 ,15.4 ,24.2 
2003/5/3,15:00:00,23.4 ,46.4 ,21.6 ,15.6 ,24.3 
2003/5/3,15:15:00,23.4 ,47.7 ,21.5 ,14.4 ,24.2 
2003/5/3,15:30:00,23.3 ,47.4 ,21.5 ,14.5 ,24.2 
2003/5/3,15:45:00,23.2 ,47.7 ,21.4 ,14.6 ,24.1 
2003/5/3,16:00:00,23.2 ,48.4 ,21.4 ,14.7 ,24.0 
2003/5/3,16:15:00,23.1 ,49.1 ,21.5 ,14.4 ,23.9 
2003/5/3,16:30:00,23.0 ,48.3 ,21.4 ,14.5 ,23.7 
2003/5/3,16:45:00,22.9 ,48.0 ,21.4 ,14.7 ,23.7 
2003/5/3,17:00:00,22.8 ,48.8 ,21.4 ,14.8 ,24.2 
2003/5/3,17:15:00,22.7 ,50.8 ,21.4 ,14.9 ,24.6 
2003/5/3,17:30:00,22.7 ,53.2 ,21.4 ,15.1 ,24.1 
2003/5/3,17:45:00,22.7 ,53.5 ,21.3 ,15.3 ,24.7 
2003/5/3,18:00:00,22.7 ,54.4 ,21.3 ,15.4 ,26.3 
2003/5/3,18:15:00,22.7 ,54.1 ,21.3 ,15.6 ,26.2 
2003/5/3,18:30:00,22.9 ,54.2 ,21.3 ,15.7 ,25.9 
2003/5/3,18:45:00,23.0 ,53.6 ,21.3 ,14.6 ,25.6 
2003/5/3,19:00:00,23.0 ,54.1 ,21.3 ,14.7 ,25.3 
2003/5/3,19:15:00,23.0 ,53.9 ,21.3 ,14.8 ,25.0 
2003/5/3,19:30:00,23.0 ,53.9 ,21.3 ,14.9 ,24.7 
2003/5/3,19:45:00,23.0 ,53.8 ,21.3 ,15.1 ,24.5 
2003/5/3,20:00:00,23.0 ,54.2 ,21.3 ,15.2 ,24.3 
2003/5/3,20:15:00,23.0 ,53.7 ,21.3 ,14.8 ,24.2 
2003/5/3,20:30:00,23.0 ,53.7 ,21.2 ,14.9 ,24.0 
2003/5/3,20:45:00,22.9 ,54.0 ,21.2 ,15.0 ,23.9 
2003/5/3,21:00:00,22.9 ,53.8 ,21.2 ,14.9 ,23.8 
2003/5/3,21:15:00,22.9 ,53.8 ,21.2 ,15.0 ,23.6 
2003/5/3,21:30:00,22.9 ,54.7 ,21.2 ,15.1 ,23.7 
2003/5/3,21:45:00,22.9 ,54.8 ,21.2 ,14.9 ,23.5 
2003/5/3,22:00:00,22.8 ,54.8 ,21.3 ,14.6 ,23.4 
2003/5/3,22:15:00,22.8 ,55.2 ,21.3 ,14.5 ,23.3 
2003/5/3,22:30:00,22.8 ,55.2 ,21.2 ,14.6 ,23.2 
2003/5/3,22:45:00,22.8 ,56.7 ,21.1 ,14.7 ,23.1 
2003/5/3,23:00:00,22.8 ,56.5 ,21.0 ,14.8 ,23.0 
2003/5/3,23:15:00,22.7 ,56.6 ,20.9 ,14.8 ,22.9 
2003/5/3,23:30:00,22.7 ,57.1 ,20.9 ,14.9 ,22.8 
2003/5/3,23:45:00,22.7 ,57.3 ,20.8 ,14.9 ,22.7 
2003/5/4,0:00:00,22.7 ,57.8 ,20.8 ,14.9 ,22.6 
2003/5/4,0:15:00,22.6 ,57.1 ,20.9 ,14.9 ,22.4 
2003/5/4,0:30:00,22.6 ,57.6 ,20.9 ,14.7 ,22.3 
2003/5/4,0:45:00,22.5 ,57.0 ,21.0 ,14.7 ,22.2 
2003/5/4,1:00:00,22.4 ,56.4 ,21.0 ,14.8 ,22.1 
2003/5/4,1:15:00,22.4 ,55.9 ,21.0 ,14.9 ,21.9 
2003/5/4,1:30:00,22.3 ,56.2 ,21.0 ,15.0 ,21.9 
2003/5/4,1:45:00,22.2 ,56.1 ,21.0 ,15.1 ,21.8 
2003/5/4,2:00:00,22.1 ,55.9 ,21.0 ,15.2 ,21.7 
2003/5/4,2:15:00,22.1 ,55.4 ,21.0 ,15.3 ,21.6 
2003/5/4,2:30:00,22.0 ,55.1 ,21.0 ,15.4 ,21.5 
2003/5/4,2:45:00,21.9 ,54.7 ,21.0 ,15.5 ,21.5 
2003/5/4,3:00:00,21.8 ,54.5 ,21.0 ,15.6 ,21.4 
2003/5/4,3:15:00,21.7 ,54.4 ,21.0 ,15.7 ,21.3 
2003/5/4,3:30:00,21.7 ,54.2 ,21.0 ,15.8 ,21.2 
2003/5/4,3:45:00,21.6 ,54.0 ,21.0 ,15.9 ,21.1 
2003/5/4,4:00:00,21.5 ,53.8 ,21.0 ,16.0 ,21.0 
2003/5/4,4:15:00,21.4 ,53.7 ,21.0 ,16.1 ,20.9 
2003/5/4,4:30:00,21.4 ,53.6 ,21.0 ,16.2 ,20.9 
2003/5/4,4:45:00,21.3 ,53.7 ,21.0 ,15.6 ,20.8 
2003/5/4,5:00:00,21.2 ,53.5 ,21.0 ,15.6 ,20.7 
2003/5/4,5:15:00,21.2 ,53.5 ,21.0 ,15.7 ,20.7 
2003/5/4,5:30:00,21.2 ,53.1 ,21.0 ,15.8 ,20.7 
2003/5/4,5:45:00,21.2 ,52.8 ,20.9 ,15.9 ,20.7 
2003/5/4,6:00:00,21.2 ,52.5 ,20.9 ,16.0 ,20.8 
2003/5/4,6:15:00,21.3 ,52.4 ,20.9 ,16.1 ,20.8 
2003/5/4,6:30:00,21.3 ,52.4 ,20.9 ,16.1 ,20.9 
2003/5/4,6:45:00,21.4 ,52.5 ,21.0 ,16.2 ,21.0 
2003/5/4,7:00:00,21.4 ,52.4 ,21.0 ,16.3 ,21.1 
2003/5/4,7:15:00,21.5 ,52.5 ,21.0 ,16.4 ,21.1 
2003/5/4,7:30:00,21.5 ,52.7 ,21.0 ,16.4 ,21.3 
2003/5/4,7:45:00,21.6 ,52.8 ,21.0 ,16.5 ,21.4 
2003/5/4,8:00:00,21.7 ,53.4 ,21.0 ,15.7 ,21.5 
2003/5/4,8:15:00,21.8 ,53.5 ,21.0 ,14.9 ,21.7 
2003/5/4,8:30:00,21.8 ,54.4 ,21.0 ,15.0 ,21.8 
2003/5/4,8:45:00,21.6 ,53.9 ,20.9 ,15.1 ,21.7 
2003/5/4,9:00:00,21.6 ,54.7 ,20.9 ,15.2 ,21.9 
2003/5/4,9:15:00,21.7 ,53.9 ,20.8 ,15.3 ,22.3 
2003/5/4,9:30:00,21.8 ,53.9 ,20.8 ,15.4 ,22.3 
2003/5/4,9:45:00,21.9 ,54.0 ,20.8 ,14.8 ,22.5 
2003/5/4,10:00:00,22.0 ,54.8 ,20.7 ,14.7 ,22.8 
2003/5/4,10:15:00,22.0 ,55.1 ,20.7 ,14.7 ,22.7 
2003/5/4,10:30:00,22.0 ,55.5 ,20.7 ,14.8 ,22.7 
2003/5/4,10:45:00,22.1 ,54.6 ,20.7 ,14.8 ,22.6 
2003/5/4,11:00:00,22.1 ,54.1 ,20.7 ,14.8 ,22.6 
2003/5/4,11:15:00,22.2 ,52.4 ,20.6 ,14.9 ,22.6 
2003/5/4,11:30:00,22.2 ,53.9 ,20.7 ,15.0 ,22.9 
2003/5/4,11:45:00,22.1 ,53.5 ,20.6 ,14.5 ,22.8 
2003/5/4,12:00:00,22.1 ,52.0 ,20.6 ,14.6 ,22.7 
2003/5/4,12:15:00,22.2 ,51.2 ,20.6 ,14.7 ,22.6 
2003/5/4,12:30:00,22.0 ,51.4 ,20.6 ,14.8 ,22.5 
2003/5/4,12:45:00,21.9 ,51.0 ,20.5 ,15.0 ,22.4 
2003/5/4,13:00:00,21.9 ,50.6 ,20.5 ,15.2 ,22.3 
2003/5/4,13:15:00,22.0 ,50.5 ,20.5 ,15.4 ,22.3 
2003/5/4,13:30:00,21.9 ,49.8 ,20.4 ,15.5 ,22.3 
2003/5/4,13:45:00,21.9 ,49.9 ,20.4 ,15.7 ,22.2 
2003/5/4,14:00:00,21.9 ,48.4 ,20.4 ,15.0 ,22.2 
2003/5/4,14:15:00,21.7 ,43.5 ,20.3 ,15.2 ,22.2 
2003/5/4,14:30:00,21.6 ,46.5 ,20.2 ,15.3 ,22.0 
2003/5/4,14:45:00,21.4 ,48.4 ,20.0 ,15.4 ,21.9 
2003/5/4,15:00:00,21.3 ,46.5 ,19.9 ,15.5 ,21.8 
2003/5/4,15:15:00,21.2 ,49.7 ,19.9 ,15.6 ,21.6 
2003/5/4,15:30:00,21.0 ,50.5 ,19.8 ,15.7 ,21.5 
2003/5/4,15:45:00,20.8 ,51.0 ,19.7 ,15.8 ,21.4 
2003/5/4,16:00:00,20.9 ,52.1 ,19.7 ,15.9 ,21.3 
2003/5/4,16:15:00,20.7 ,52.4 ,19.6 ,16.0 ,21.2 
2003/5/4,16:30:00,20.6 ,52.4 ,19.6 ,16.2 ,21.1 
2003/5/4,16:45:00,20.3 ,53.5 ,19.5 ,16.3 ,21.0 
2003/5/4,17:00:00,20.0 ,54.3 ,19.4 ,16.4 ,20.9 
2003/5/4,17:15:00,19.9 ,55.6 ,19.3 ,16.4 ,20.7 
2003/5/4,17:30:00,20.1 ,55.4 ,19.1 ,16.5 ,20.5 
2003/5/4,17:45:00,20.2 ,56.2 ,19.1 ,16.6 ,20.5 
2003/5/4,18:00:00,20.5 ,55.3 ,19.2 ,15.4 ,20.7 
2003/5/4,18:15:00,20.6 ,54.6 ,19.3 ,14.9 ,20.9 
2003/5/4,18:30:00,20.7 ,54.3 ,19.3 ,14.9 ,20.9 
2003/5/4,18:45:00,20.7 ,55.5 ,19.3 ,15.0 ,21.3 
2003/5/4,19:00:00,20.9 ,57.0 ,19.3 ,15.1 ,21.9 
2003/5/4,19:15:00,21.0 ,57.6 ,19.3 ,15.2 ,21.9 
2003/5/4,19:30:00,21.1 ,57.9 ,19.3 ,15.3 ,21.9 
2003/5/4,19:45:00,21.1 ,58.2 ,19.4 ,15.4 ,21.8 
2003/5/4,20:00:00,21.1 ,58.4 ,19.4 ,15.5 ,21.7 
2003/5/4,20:15:00,21.1 ,58.4 ,19.4 ,15.6 ,21.6 
2003/5/4,20:30:00,21.1 ,58.8 ,19.4 ,15.8 ,21.5 
2003/5/4,20:45:00,21.0 ,58.6 ,19.4 ,15.9 ,21.4 
2003/5/4,21:00:00,21.0 ,58.5 ,19.4 ,16.0 ,21.3 
2003/5/4,21:15:00,20.9 ,58.5 ,19.4 ,15.7 ,21.3 
2003/5/4,21:30:00,20.9 ,59.0 ,19.3 ,15.6 ,21.2 
2003/5/4,21:45:00,20.9 ,59.1 ,19.3 ,15.7 ,21.0 
2003/5/4,22:00:00,20.8 ,58.6 ,19.3 ,15.8 ,20.8 
2003/5/4,22:15:00,20.8 ,58.0 ,19.3 ,15.9 ,20.7 
2003/5/4,22:30:00,20.7 ,57.6 ,19.2 ,16.1 ,20.4 
2003/5/4,22:45:00,20.6 ,57.5 ,19.2 ,16.2 ,20.2 
2003/5/4,23:00:00,20.6 ,57.3 ,19.2 ,16.3 ,20.2 
2003/5/4,23:15:00,20.6 ,57.2 ,19.2 ,16.4 ,20.1 
2003/5/4,23:30:00,20.5 ,57.2 ,19.1 ,15.7 ,19.9 
2003/5/4,23:45:00,20.5 ,56.9 ,19.1 ,15.8 ,19.8 
2003/5/5,0:00:00,20.4 ,57.0 ,19.1 ,15.8 ,19.8 
2003/5/5,0:15:00,20.4 ,57.6 ,19.1 ,16.0 ,19.7 
2003/5/5,0:30:00,20.4 ,58.1 ,19.0 ,16.1 ,19.7 
2003/5/5,0:45:00,20.4 ,57.9 ,19.0 ,16.2 ,19.7 
2003/5/5,1:00:00,20.3 ,58.1 ,19.0 ,16.3 ,19.7 
2003/5/5,1:15:00,20.3 ,57.7 ,19.0 ,16.5 ,19.5 
2003/5/5,1:30:00,20.2 ,57.5 ,19.0 ,16.6 ,19.5 
2003/5/5,1:45:00,20.2 ,57.5 ,18.9 ,16.7 ,19.5 
2003/5/5,2:00:00,20.2 ,57.5 ,18.9 ,16.8 ,19.4 
2003/5/5,2:15:00,20.1 ,57.5 ,18.9 ,16.8 ,19.4 
2003/5/5,2:30:00,20.1 ,57.6 ,18.9 ,16.9 ,19.3 
2003/5/5,2:45:00,20.0 ,57.4 ,18.8 ,17.0 ,19.3 
2003/5/5,3:00:00,20.0 ,57.4 ,18.8 ,17.1 ,19.2 
2003/5/5,3:15:00,19.9 ,57.4 ,18.8 ,17.2 ,19.2 
2003/5/5,3:30:00,19.9 ,57.5 ,18.7 ,17.2 ,19.1 
2003/5/5,3:45:00,19.9 ,57.4 ,18.7 ,17.3 ,19.2 
2003/5/5,4:00:00,19.8 ,57.5 ,18.7 ,17.4 ,19.2 
2003/5/5,4:15:00,19.8 ,57.5 ,18.7 ,17.5 ,19.2 
2003/5/5,4:30:00,19.8 ,57.5 ,18.6 ,17.5 ,19.1 
2003/5/5,4:45:00,19.7 ,57.4 ,18.6 ,17.6 ,19.0 
2003/5/5,5:00:00,19.7 ,57.5 ,18.6 ,17.6 ,19.1 
2003/5/5,5:15:00,19.7 ,57.5 ,18.5 ,17.7 ,19.1 
2003/5/5,5:30:00,19.7 ,57.5 ,18.5 ,17.7 ,19.1 
2003/5/5,5:45:00,19.6 ,57.5 ,18.5 ,16.2 ,19.0 
2003/5/5,6:00:00,19.6 ,57.4 ,18.5 ,16.2 ,19.5 
2003/5/5,6:15:00,19.6 ,57.4 ,18.4 ,16.3 ,19.6 
2003/5/5,6:30:00,19.6 ,57.2 ,18.4 ,16.4 ,19.6 
2003/5/5,6:45:00,19.6 ,57.1 ,18.4 ,16.5 ,19.6 
2003/5/5,7:00:00,19.6 ,57.2 ,18.4 ,16.6 ,19.6 
2003/5/5,7:15:00,19.5 ,57.5 ,18.4 ,16.7 ,19.5 
2003/5/5,7:30:00,19.5 ,57.5 ,18.3 ,16.8 ,19.5 
2003/5/5,7:45:00,19.5 ,57.4 ,18.3 ,16.8 ,19.4 
2003/5/5,8:00:00,19.5 ,57.4 ,18.3 ,16.9 ,19.4 
2003/5/5,8:15:00,19.5 ,57.3 ,18.3 ,17.0 ,19.3 
2003/5/5,8:30:00,19.5 ,57.2 ,18.3 ,17.1 ,19.2 
2003/5/5,8:45:00,19.5 ,57.4 ,18.3 ,17.1 ,19.1 
2003/5/5,9:00:00,19.6 ,57.3 ,18.3 ,17.2 ,19.5 
2003/5/5,9:15:00,19.6 ,57.7 ,18.3 ,15.6 ,20.0 
2003/5/5,9:30:00,19.7 ,57.3 ,18.3 ,15.3 ,20.0 
2003/5/5,9:45:00,19.8 ,57.0 ,18.3 ,15.4 ,20.1 
2003/5/5,10:00:00,19.9 ,58.1 ,18.4 ,15.1 ,20.1 
2003/5/5,10:15:00,20.0 ,57.7 ,18.4 ,15.2 ,20.1 
2003/5/5,10:30:00,20.1 ,57.2 ,18.4 ,15.3 ,20.2 
2003/5/5,10:45:00,20.3 ,56.7 ,18.4 ,15.0 ,20.4 
2003/5/5,11:00:00,20.3 ,56.9 ,18.5 ,15.1 ,20.5 
2003/5/5,11:15:00,20.3 ,56.5 ,18.5 ,15.2 ,20.6 
2003/5/5,11:30:00,20.4 ,56.2 ,18.5 ,15.3 ,20.7 
2003/5/5,11:45:00,20.5 ,56.3 ,18.5 ,15.4 ,20.7 
2003/5/5,12:00:00,20.5 ,55.7 ,18.5 ,15.5 ,20.8 
2003/5/5,12:15:00,20.6 ,55.7 ,18.6 ,15.6 ,20.9 
2003/5/5,12:30:00,20.6 ,55.4 ,18.6 ,15.8 ,20.9 
2003/5/5,12:45:00,20.7 ,55.3 ,18.6 ,15.9 ,21.0 
2003/5/5,13:00:00,20.7 ,55.3 ,18.6 ,16.0 ,21.0 
2003/5/5,13:15:00,20.8 ,55.2 ,18.7 ,16.1 ,21.1 
2003/5/5,13:30:00,20.8 ,55.2 ,18.7 ,16.2 ,21.1 
2003/5/5,13:45:00,20.8 ,55.6 ,18.7 ,16.3 ,21.2 
2003/5/5,14:00:00,20.9 ,55.2 ,18.7 ,16.4 ,21.2 
2003/5/5,14:15:00,20.9 ,55.6 ,18.8 ,16.5 ,21.3 
2003/5/5,14:30:00,20.9 ,55.7 ,18.8 ,16.6 ,21.3 
2003/5/5,14:45:00,20.9 ,55.7 ,18.8 ,16.7 ,21.3 
2003/5/5,15:00:00,21.0 ,55.2 ,18.9 ,16.8 ,21.3 
2003/5/5,15:15:00,21.0 ,55.0 ,18.9 ,16.9 ,21.3 
2003/5/5,15:30:00,21.0 ,54.9 ,18.9 ,17.0 ,21.3 
2003/5/5,15:45:00,21.0 ,55.3 ,18.9 ,17.1 ,21.3 
2003/5/5,16:00:00,21.0 ,55.3 ,19.0 ,17.2 ,21.3 
2003/5/5,16:15:00,21.0 ,55.3 ,19.0 ,17.2 ,21.3 
2003/5/5,16:30:00,21.0 ,56.1 ,19.0 ,17.3 ,21.2 
2003/5/5,16:45:00,21.0 ,55.1 ,19.0 ,17.4 ,21.2 
2003/5/5,17:00:00,21.0 ,55.8 ,19.0 ,17.4 ,21.2 
2003/5/5,17:15:00,20.9 ,55.9 ,19.0 ,17.5 ,21.1 
2003/5/5,17:30:00,20.9 ,55.4 ,19.1 ,17.6 ,21.0 
2003/5/5,17:45:00,20.9 ,55.6 ,19.1 ,17.6 ,21.0 
2003/5/5,18:00:00,20.8 ,55.8 ,19.1 ,17.7 ,20.9 
2003/5/5,18:15:00,20.8 ,56.0 ,19.0 ,17.7 ,20.8 
2003/5/5,18:30:00,20.7 ,56.0 ,19.0 ,17.8 ,20.7 
2003/5/5,18:45:00,20.7 ,56.1 ,19.0 ,17.9 ,20.6 
2003/5/5,19:00:00,20.6 ,56.1 ,19.0 ,17.9 ,20.5 
2003/5/5,19:15:00,20.6 ,56.2 ,19.0 ,17.9 ,20.4 
2003/5/5,19:30:00,20.5 ,56.2 ,19.0 ,18.0 ,20.3 
2003/5/5,19:45:00,20.4 ,56.3 ,18.9 ,18.0 ,20.2 
2003/5/5,20:00:00,20.4 ,56.3 ,18.9 ,18.1 ,20.1 
2003/5/5,20:15:00,20.3 ,56.3 ,18.9 ,18.1 ,20.0 
2003/5/5,20:30:00,20.3 ,56.3 ,18.9 ,18.2 ,19.9 
2003/5/5,20:45:00,20.2 ,56.7 ,18.8 ,18.2 ,19.8 
2003/5/5,21:00:00,20.2 ,56.2 ,18.8 ,15.6 ,19.7 
2003/5/5,21:15:00,20.2 ,56.1 ,18.8 ,15.7 ,19.7 
2003/5/5,21:30:00,20.2 ,57.1 ,18.7 ,15.8 ,19.6 
2003/5/5,21:45:00,20.1 ,58.9 ,18.7 ,15.8 ,19.5 
2003/5/5,22:00:00,20.1 ,58.7 ,18.7 ,15.9 ,19.5 
2003/5/5,22:15:00,20.1 ,59.3 ,18.7 ,16.0 ,19.3 
2003/5/5,22:30:00,20.0 ,58.7 ,18.6 ,16.1 ,19.2 
2003/5/5,22:45:00,20.0 ,58.7 ,18.6 ,16.1 ,19.2 
2003/5/5,23:00:00,20.0 ,58.4 ,18.6 ,16.2 ,19.1 
2003/5/5,23:15:00,19.9 ,58.4 ,18.5 ,16.3 ,19.0 
2003/5/5,23:30:00,19.9 ,58.5 ,18.5 ,16.4 ,18.9 
2003/5/5,23:45:00,19.9 ,58.8 ,18.5 ,16.4 ,18.9 
2003/5/6,0:00:00,19.8 ,58.1 ,18.4 ,16.5 ,18.9 
2003/5/6,0:15:00,19.8 ,57.7 ,18.4 ,16.6 ,18.8 
2003/5/6,0:30:00,19.7 ,57.3 ,18.4 ,16.6 ,18.8 
2003/5/6,0:45:00,19.6 ,57.1 ,18.4 ,16.7 ,18.7 
2003/5/6,1:00:00,19.6 ,56.9 ,18.3 ,16.7 ,18.6 
2003/5/6,1:15:00,19.5 ,56.7 ,18.3 ,16.8 ,18.5 
2003/5/6,1:30:00,19.5 ,56.7 ,18.3 ,16.8 ,18.6 
2003/5/6,1:45:00,19.4 ,56.6 ,18.2 ,16.9 ,18.5 
2003/5/6,2:00:00,19.4 ,56.6 ,18.2 ,16.9 ,18.4 
2003/5/6,2:15:00,19.3 ,56.6 ,18.2 ,17.0 ,18.4 
2003/5/6,2:30:00,19.3 ,56.6 ,18.1 ,17.0 ,18.4 
2003/5/6,2:45:00,19.2 ,56.6 ,18.1 ,17.1 ,18.3 
2003/5/6,3:00:00,19.2 ,56.6 ,18.0 ,17.1 ,18.2 